Location: B�rgermoos
(47.6500°N, 9.0667°E)
Time: 23:38:53
(UTC+00:00)

Tiros 1 - Pass Details

Date: 09 August 2021
Orbit: 630 x 663 km, 48.4° (Epoch: 19 September)

Event Time Altitude Azimuth Distance (km) Brightness Sun altitude
Rises 16:24:15 0° 262° (W) 2,991 12.0 22.4°
Reaches altitude 10° 16:26:37 10° 263° (W) 2,078 11.9 22.0°
Maximum altitude 16:31:26 85° 353° (N) 666 7.6 21.2°
Drops below altitude 10° 16:36:13 10° 82° (E) 2,065 9.2 20.4°
Sets 16:38:33 0° 83° (E) 2,971 10.0 20.0°
